Year,Month,Day,Hour,Minute,Value (Times are PST for temperature in C)
2009,06,30,00,00,12.40
2009,06,30,00,01,12.40
2009,06,30,00,02,12.40
2009,06,30,00,03,12.40
2009,06,30,00,04,12.30
2009,06,30,00,05,12.30
2009,06,30,00,06,12.30
2009,06,30,00,07,12.30
2009,06,30,00,08,12.30
2009,06,30,00,09,12.20
2009,06,30,00,10,12.20
2009,06,30,00,11,12.20
2009,06,30,00,12,12.20
2009,06,30,00,13,12.10
2009,06,30,00,14,12.10
2009,06,30,00,15,12.10
2009,06,30,00,16,12.10
2009,06,30,00,17,12.10
2009,06,30,00,18,12.00
2009,06,30,00,19,12.00
2009,06,30,00,20,12.00
2009,06,30,00,21,12.00
2009,06,30,00,22,11.90
2009,06,30,00,23,11.90
2009,06,30,00,24,11.90
2009,06,30,00,25,11.90
2009,06,30,00,26,11.90
2009,06,30,00,27,11.90
2009,06,30,00,28,11.90
2009,06,30,00,29,11.90
2009,06,30,00,30,11.90
2009,06,30,00,31,11.90
2009,06,30,00,32,11.90
2009,06,30,00,33,11.90
2009,06,30,00,34,11.90
2009,06,30,00,35,11.80
2009,06,30,00,36,11.80
2009,06,30,00,37,11.80
2009,06,30,00,38,11.80
2009,06,30,00,39,11.80
2009,06,30,00,40,11.80
2009,06,30,00,41,11.80
2009,06,30,00,42,11.80
2009,06,30,00,43,11.80
2009,06,30,00,44,11.80
2009,06,30,00,45,11.80
2009,06,30,00,46,11.70
2009,06,30,00,47,11.70
2009,06,30,00,48,11.70
2009,06,30,00,49,11.80
2009,06,30,00,50,11.80
2009,06,30,00,51,11.80
2009,06,30,00,52,11.80
2009,06,30,00,53,11.80
2009,06,30,00,54,11.80
2009,06,30,00,55,11.80
2009,06,30,00,56,11.80
2009,06,30,00,57,11.80
2009,06,30,00,58,11.80
2009,06,30,00,59,11.80
2009,06,30,01,00,11.80
2009,06,30,01,01,11.80
2009,06,30,01,02,11.80
2009,06,30,01,03,11.80
2009,06,30,01,04,11.80
2009,06,30,01,05,11.80
2009,06,30,01,06,11.80
2009,06,30,01,07,11.80
2009,06,30,01,08,11.80
2009,06,30,01,09,11.80
2009,06,30,01,10,11.80
2009,06,30,01,11,11.70
2009,06,30,01,12,11.70
2009,06,30,01,13,11.70
2009,06,30,01,14,11.70
2009,06,30,01,15,11.70
2009,06,30,01,16,11.70
2009,06,30,01,17,11.70
2009,06,30,01,18,11.70
2009,06,30,01,19,11.70
2009,06,30,01,20,11.70
2009,06,30,01,21,11.70
2009,06,30,01,22,11.70
2009,06,30,01,23,11.60
2009,06,30,01,24,11.60
2009,06,30,01,25,11.70
2009,06,30,01,26,11.60
2009,06,30,01,27,11.60
2009,06,30,01,28,11.70
2009,06,30,01,29,11.60
2009,06,30,01,30,11.60
2009,06,30,01,31,11.60
2009,06,30,01,32,11.60
2009,06,30,01,33,11.60
2009,06,30,01,34,11.60
2009,06,30,01,35,11.60
2009,06,30,01,36,11.60
2009,06,30,01,37,11.60
2009,06,30,01,38,11.60
2009,06,30,01,39,11.50
2009,06,30,01,40,11.50
2009,06,30,01,41,11.50
2009,06,30,01,42,11.40
2009,06,30,01,43,11.40
2009,06,30,01,44,11.40
2009,06,30,01,45,11.40
2009,06,30,01,46,11.40
2009,06,30,01,47,11.40
2009,06,30,01,48,11.40
2009,06,30,01,49,11.40
2009,06,30,01,50,11.30
2009,06,30,01,51,11.30
2009,06,30,01,52,11.30
2009,06,30,01,53,11.30
2009,06,30,01,54,11.30
2009,06,30,01,55,11.20
2009,06,30,01,56,11.20
2009,06,30,01,57,11.20
2009,06,30,01,58,11.20
2009,06,30,01,59,11.20
2009,06,30,02,00,11.20
2009,06,30,02,01,11.20
2009,06,30,02,02,11.20
2009,06,30,02,03,11.20
2009,06,30,02,04,11.20
2009,06,30,02,05,11.20
2009,06,30,02,06,11.20
2009,06,30,02,07,11.20
2009,06,30,02,08,11.20
2009,06,30,02,09,11.20
2009,06,30,02,10,11.20
2009,06,30,02,11,11.20
2009,06,30,02,12,11.20
2009,06,30,02,13,11.20
2009,06,30,02,14,11.20
2009,06,30,02,15,11.20
2009,06,30,02,16,11.20
2009,06,30,02,17,11.20
2009,06,30,02,18,11.20
2009,06,30,02,19,11.20
2009,06,30,02,20,11.20
2009,06,30,02,21,11.20
2009,06,30,02,22,11.20
2009,06,30,02,23,11.20
2009,06,30,02,24,11.10
2009,06,30,02,25,11.10
2009,06,30,02,26,11.10
2009,06,30,02,27,11.10
2009,06,30,02,28,11.10
2009,06,30,02,29,11.10
2009,06,30,02,30,11.10
2009,06,30,02,31,11.00
2009,06,30,02,32,11.00
2009,06,30,02,33,11.00
2009,06,30,02,34,11.00
2009,06,30,02,35,11.00
2009,06,30,02,36,11.00
2009,06,30,02,37,11.00
2009,06,30,02,38,11.00
2009,06,30,02,39,10.90
2009,06,30,02,40,11.00
2009,06,30,02,41,11.00
2009,06,30,02,42,11.00
2009,06,30,02,43,10.90
2009,06,30,02,44,10.90
2009,06,30,02,45,10.90
2009,06,30,02,46,10.90
2009,06,30,02,47,10.90
2009,06,30,02,48,10.90
2009,06,30,02,49,10.90
2009,06,30,02,50,10.90
2009,06,30,02,51,10.90
2009,06,30,02,52,10.90
2009,06,30,02,53,10.90
2009,06,30,02,54,10.90
2009,06,30,02,55,10.90
2009,06,30,02,56,10.90
2009,06,30,02,57,10.80
2009,06,30,02,58,10.80
2009,06,30,02,59,10.80
2009,06,30,03,00,10.80
2009,06,30,03,01,10.80
2009,06,30,03,02,10.80
2009,06,30,03,03,10.80
2009,06,30,03,04,10.70
2009,06,30,03,05,10.70
2009,06,30,03,06,10.70
2009,06,30,03,07,10.70
2009,06,30,03,08,10.70
2009,06,30,03,09,10.70
2009,06,30,03,10,10.70
2009,06,30,03,11,10.70
2009,06,30,03,12,10.60
2009,06,30,03,13,10.60
2009,06,30,03,14,10.60
2009,06,30,03,15,10.60
2009,06,30,03,16,10.60
2009,06,30,03,17,10.60
2009,06,30,03,18,10.50
2009,06,30,03,19,10.50
2009,06,30,03,20,10.50
2009,06,30,03,21,10.40
2009,06,30,03,22,10.40
2009,06,30,03,23,10.30
2009,06,30,03,24,10.30
2009,06,30,03,25,10.30
2009,06,30,03,26,10.30
2009,06,30,03,27,10.20
2009,06,30,03,28,10.20
2009,06,30,03,29,10.20
2009,06,30,03,30,10.10
2009,06,30,03,31,10.10
2009,06,30,03,32,10.10
2009,06,30,03,33,10.10
2009,06,30,03,34,10.10
2009,06,30,03,35,10.00
2009,06,30,03,36,10.00
2009,06,30,03,37,10.00
2009,06,30,03,38,9.90
2009,06,30,03,39,9.90
2009,06,30,03,40,9.90
2009,06,30,03,41,9.90
2009,06,30,03,42,10.00
2009,06,30,03,43,10.00
2009,06,30,03,44,10.10
2009,06,30,03,45,10.10
2009,06,30,03,46,10.10
2009,06,30,03,47,10.10
2009,06,30,03,48,10.20
2009,06,30,03,49,10.20
2009,06,30,03,50,10.20
2009,06,30,03,51,10.30
2009,06,30,03,52,10.30
2009,06,30,03,53,10.30
2009,06,30,03,54,10.30
2009,06,30,03,55,10.30
2009,06,30,03,56,10.20
2009,06,30,03,57,10.20
2009,06,30,03,58,10.20
2009,06,30,03,59,10.20
2009,06,30,04,00,10.20
2009,06,30,04,01,10.20
2009,06,30,04,02,10.20
2009,06,30,04,03,10.20
2009,06,30,04,04,10.20
2009,06,30,04,05,10.20
2009,06,30,04,06,10.10
2009,06,30,04,07,10.10
2009,06,30,04,08,10.00
2009,06,30,04,09,10.00
2009,06,30,04,10,9.90
2009,06,30,04,11,9.90
2009,06,30,04,12,9.80
2009,06,30,04,13,9.80
2009,06,30,04,14,9.70
2009,06,30,04,15,9.60
2009,06,30,04,16,9.60
2009,06,30,04,17,9.60
2009,06,30,04,18,9.50
2009,06,30,04,19,9.40
2009,06,30,04,20,9.40
2009,06,30,04,21,9.30
2009,06,30,04,22,9.20
2009,06,30,04,23,9.10
2009,06,30,04,24,9.10
2009,06,30,04,25,9.10
2009,06,30,04,26,9.00
2009,06,30,04,27,9.00
2009,06,30,04,28,8.90
2009,06,30,04,29,8.90
2009,06,30,04,30,8.90
2009,06,30,04,31,8.90
2009,06,30,04,32,8.90
2009,06,30,04,33,8.80
2009,06,30,04,34,8.80
2009,06,30,04,35,8.80
2009,06,30,04,36,8.80
2009,06,30,04,37,8.70
2009,06,30,04,38,8.70
2009,06,30,04,39,8.70
2009,06,30,04,40,8.70
2009,06,30,04,41,8.70
2009,06,30,04,42,8.70
2009,06,30,04,43,8.70
2009,06,30,04,44,8.70
2009,06,30,04,45,8.70
2009,06,30,04,46,8.70
2009,06,30,04,47,8.70
2009,06,30,04,48,8.70
2009,06,30,04,49,8.70
2009,06,30,04,50,8.70
2009,06,30,04,51,8.60
2009,06,30,04,52,8.60
2009,06,30,04,53,8.60
2009,06,30,04,54,8.60
2009,06,30,04,55,8.60
2009,06,30,04,56,8.50
2009,06,30,04,57,8.50
2009,06,30,04,58,8.50
2009,06,30,04,59,8.50
2009,06,30,05,00,8.50
2009,06,30,05,01,8.40
2009,06,30,05,02,8.40
2009,06,30,05,03,8.40
2009,06,30,05,04,8.40
2009,06,30,05,05,8.40
2009,06,30,05,06,8.40
2009,06,30,05,07,8.40
2009,06,30,05,08,8.40
2009,06,30,05,09,8.40
2009,06,30,05,10,8.40
2009,06,30,05,11,8.40
2009,06,30,05,12,8.40
2009,06,30,05,13,8.50
2009,06,30,05,14,8.50
2009,06,30,05,15,8.50
2009,06,30,05,16,8.60
2009,06,30,05,17,8.60
2009,06,30,05,18,8.60
2009,06,30,05,19,8.60
2009,06,30,05,20,8.60
2009,06,30,05,21,8.70
2009,06,30,05,22,8.70
2009,06,30,05,23,8.70
2009,06,30,05,24,8.60
2009,06,30,05,25,8.60
2009,06,30,05,26,8.60
2009,06,30,05,27,8.50
2009,06,30,05,28,8.50
2009,06,30,05,29,8.40
2009,06,30,05,30,8.40
2009,06,30,05,31,8.40
2009,06,30,05,32,8.40
2009,06,30,05,33,8.40
2009,06,30,05,34,8.40
2009,06,30,05,35,8.40
2009,06,30,05,36,8.40
2009,06,30,05,37,8.40
2009,06,30,05,38,8.40
2009,06,30,05,39,8.40
2009,06,30,05,40,8.30
2009,06,30,05,41,8.30
2009,06,30,05,42,8.30
2009,06,30,05,43,8.30
2009,06,30,05,44,8.30
2009,06,30,05,45,8.30
2009,06,30,05,46,8.30
2009,06,30,05,47,8.30
2009,06,30,05,48,8.30
2009,06,30,05,49,8.40
2009,06,30,05,50,8.40
2009,06,30,05,51,8.40
2009,06,30,05,52,8.50
2009,06,30,05,53,8.50
2009,06,30,05,54,8.50
2009,06,30,05,55,8.50
2009,06,30,05,56,8.50
2009,06,30,05,57,8.50
2009,06,30,05,58,8.60
2009,06,30,05,59,8.60
2009,06,30,06,00,8.70
2009,06,30,06,01,8.70
2009,06,30,06,02,8.80
2009,06,30,06,03,8.90
2009,06,30,06,04,9.00
2009,06,30,06,05,9.10
2009,06,30,06,06,9.10
2009,06,30,06,07,9.20
2009,06,30,06,08,9.30
2009,06,30,06,09,9.30
2009,06,30,06,10,9.40
2009,06,30,06,11,9.40
2009,06,30,06,12,9.50
2009,06,30,06,13,9.50
2009,06,30,06,14,9.50
2009,06,30,06,15,9.50
2009,06,30,06,16,9.50
2009,06,30,06,17,9.40
2009,06,30,06,18,9.40
2009,06,30,06,19,9.40
2009,06,30,06,20,9.40
2009,06,30,06,21,9.40
2009,06,30,06,22,9.50
2009,06,30,06,23,9.50
2009,06,30,06,24,9.50
2009,06,30,06,25,9.50
2009,06,30,06,26,9.50
2009,06,30,06,27,9.50
2009,06,30,06,28,9.50
2009,06,30,06,29,9.50
2009,06,30,06,30,9.40
2009,06,30,06,31,9.50
2009,06,30,06,32,9.50
2009,06,30,06,33,9.50
2009,06,30,06,34,9.60
2009,06,30,06,35,9.60
2009,06,30,06,36,9.60
2009,06,30,06,37,9.70
2009,06,30,06,38,9.80
2009,06,30,06,39,9.80
2009,06,30,06,40,9.80
2009,06,30,06,41,9.80
2009,06,30,06,42,9.90
2009,06,30,06,43,9.90
2009,06,30,06,44,10.00
2009,06,30,06,45,10.10
2009,06,30,06,46,10.20
2009,06,30,06,47,10.30
2009,06,30,06,48,10.30
2009,06,30,06,49,10.40
2009,06,30,06,50,10.50
2009,06,30,06,51,10.60
2009,06,30,06,52,10.60
2009,06,30,06,53,10.70
2009,06,30,06,54,10.70
2009,06,30,06,55,10.80
2009,06,30,06,56,10.80
2009,06,30,06,57,10.80
2009,06,30,06,58,10.80
2009,06,30,06,59,10.90
2009,06,30,07,00,10.90
2009,06,30,07,01,11.00
2009,06,30,07,02,11.00
2009,06,30,07,03,11.10
2009,06,30,07,04,11.10
2009,06,30,07,05,11.20
2009,06,30,07,06,11.30
2009,06,30,07,07,11.30
2009,06,30,07,08,11.30
2009,06,30,07,09,11.30
2009,06,30,07,10,11.30
2009,06,30,07,11,11.30
2009,06,30,07,12,11.40
2009,06,30,07,13,11.40
2009,06,30,07,14,11.50
2009,06,30,07,15,11.50
2009,06,30,07,16,11.60
2009,06,30,07,17,11.70
2009,06,30,07,18,11.70
2009,06,30,07,19,11.60
2009,06,30,07,20,11.60
2009,06,30,07,21,11.60
2009,06,30,07,22,11.60
2009,06,30,07,23,11.60
2009,06,30,07,24,11.70
2009,06,30,07,25,11.70
2009,06,30,07,26,11.80
2009,06,30,07,27,11.80
2009,06,30,07,28,11.80
2009,06,30,07,29,11.90
2009,06,30,07,30,11.90
2009,06,30,07,31,11.90
2009,06,30,07,32,12.00
2009,06,30,07,33,12.00
2009,06,30,07,34,12.10
2009,06,30,07,35,12.10
2009,06,30,07,36,12.20
2009,06,30,07,37,12.20
2009,06,30,07,38,12.20
2009,06,30,07,39,12.20
2009,06,30,07,40,12.30
2009,06,30,07,41,12.30
2009,06,30,07,42,12.30
2009,06,30,07,43,12.40
2009,06,30,07,44,12.40
2009,06,30,07,45,12.50
2009,06,30,07,46,12.60
2009,06,30,07,47,12.60
2009,06,30,07,48,12.70
2009,06,30,07,49,12.80
2009,06,30,07,50,12.80
2009,06,30,07,51,12.90
2009,06,30,07,52,12.90
2009,06,30,07,53,12.90
2009,06,30,07,54,12.90
2009,06,30,07,55,13.00
2009,06,30,07,56,13.00
2009,06,30,07,57,13.10
2009,06,30,07,58,13.10
2009,06,30,07,59,13.30
2009,06,30,08,00,13.30
2009,06,30,08,01,13.40
2009,06,30,08,02,13.40
2009,06,30,08,03,13.40
2009,06,30,08,04,13.40
2009,06,30,08,05,13.50
2009,06,30,08,06,13.50
2009,06,30,08,07,13.60
2009,06,30,08,08,13.60
2009,06,30,08,09,13.70
2009,06,30,08,10,13.70
2009,06,30,08,11,13.70
2009,06,30,08,12,13.70
2009,06,30,08,13,13.80
2009,06,30,08,14,13.80
2009,06,30,08,15,13.80
2009,06,30,08,16,13.80
2009,06,30,08,17,13.80
2009,06,30,08,18,13.80
2009,06,30,08,19,13.80
2009,06,30,08,20,13.90
2009,06,30,08,21,13.90
2009,06,30,08,22,13.90
2009,06,30,08,23,14.00
2009,06,30,08,24,14.00
2009,06,30,08,25,14.10
2009,06,30,08,26,14.20
2009,06,30,08,27,14.30
2009,06,30,08,28,14.30
2009,06,30,08,29,14.40
2009,06,30,08,30,14.50
2009,06,30,08,31,14.50
2009,06,30,08,32,14.50
2009,06,30,08,33,14.50
2009,06,30,08,34,14.60
2009,06,30,08,35,14.60
2009,06,30,08,36,14.70
2009,06,30,08,37,14.70
2009,06,30,08,38,14.70
2009,06,30,08,39,14.70
2009,06,30,08,40,14.80
2009,06,30,08,41,14.80
2009,06,30,08,42,14.70
2009,06,30,08,43,14.70
2009,06,30,08,44,14.70
2009,06,30,08,45,14.70
2009,06,30,08,46,14.70
2009,06,30,08,47,14.70
2009,06,30,08,48,14.80
2009,06,30,08,49,14.90
2009,06,30,08,50,15.00
2009,06,30,08,51,15.00
2009,06,30,08,52,15.00
2009,06,30,08,53,15.10
2009,06,30,08,54,15.10
2009,06,30,08,55,15.10
2009,06,30,08,56,15.00
2009,06,30,08,57,15.00
2009,06,30,08,58,15.00
2009,06,30,08,59,15.00
2009,06,30,09,00,15.00
2009,06,30,09,01,15.00
2009,06,30,09,02,15.00
2009,06,30,09,03,15.00
2009,06,30,09,04,15.00
2009,06,30,09,05,15.00
2009,06,30,09,06,15.00
2009,06,30,09,07,15.20
2009,06,30,09,08,15.30
2009,06,30,09,09,15.40
2009,06,30,09,10,15.30
2009,06,30,09,11,15.30
2009,06,30,09,12,15.30
2009,06,30,09,13,15.40
2009,06,30,09,14,15.40
2009,06,30,09,15,15.50
2009,06,30,09,16,15.40
2009,06,30,09,17,15.40
2009,06,30,09,18,15.40
2009,06,30,09,19,15.40
2009,06,30,09,20,15.30
2009,06,30,09,21,15.30
2009,06,30,09,22,15.20
2009,06,30,09,23,15.30
2009,06,30,09,24,15.30
2009,06,30,09,25,15.30
2009,06,30,09,26,15.20
2009,06,30,09,27,15.30
2009,06,30,09,28,15.40
2009,06,30,09,29,15.50
2009,06,30,09,30,15.50
2009,06,30,09,31,15.50
2009,06,30,09,32,15.50
2009,06,30,09,33,15.50
2009,06,30,09,34,15.60
2009,06,30,09,35,15.60
2009,06,30,09,36,15.70
2009,06,30,09,37,15.60
2009,06,30,09,38,15.60
2009,06,30,09,39,15.60
2009,06,30,09,40,15.50
2009,06,30,09,41,15.50
2009,06,30,09,42,15.40
2009,06,30,09,43,15.40
2009,06,30,09,44,15.40
2009,06,30,09,45,15.40
2009,06,30,09,46,15.30
2009,06,30,09,47,15.30
2009,06,30,09,48,15.30
2009,06,30,09,49,15.40
2009,06,30,09,50,15.40
2009,06,30,09,51,15.40
2009,06,30,09,52,15.50
2009,06,30,09,53,15.60
2009,06,30,09,54,15.70
2009,06,30,09,55,15.80
2009,06,30,09,56,15.80
2009,06,30,09,57,15.80
2009,06,30,09,58,15.70
2009,06,30,09,59,15.60
2009,06,30,10,00,15.50
2009,06,30,10,01,15.50
2009,06,30,10,02,15.50
2009,06,30,10,03,15.60
2009,06,30,10,04,15.70
2009,06,30,10,05,15.70
2009,06,30,10,06,15.70
2009,06,30,10,07,15.60
2009,06,30,10,08,15.60
2009,06,30,10,09,15.70
2009,06,30,10,10,15.70
2009,06,30,10,11,15.80
2009,06,30,10,12,15.80
2009,06,30,10,13,15.80
2009,06,30,10,14,15.80
2009,06,30,10,15,15.90
2009,06,30,10,16,15.90
2009,06,30,10,17,16.00
2009,06,30,10,18,16.00
2009,06,30,10,19,16.10
2009,06,30,10,20,16.00
2009,06,30,10,21,16.00
2009,06,30,10,22,15.90
2009,06,30,10,23,15.90
2009,06,30,10,24,15.90
2009,06,30,10,25,15.90
2009,06,30,10,26,15.90
2009,06,30,10,27,15.90
2009,06,30,10,28,16.10
2009,06,30,10,29,16.20
2009,06,30,10,30,16.30
2009,06,30,10,31,16.40
2009,06,30,10,32,16.40
2009,06,30,10,33,16.40
2009,06,30,10,34,16.40
2009,06,30,10,35,16.40
2009,06,30,10,36,16.30
2009,06,30,10,37,16.30
2009,06,30,10,38,16.40
2009,06,30,10,39,16.40
2009,06,30,10,40,16.50
2009,06,30,10,41,16.70
2009,06,30,10,42,16.80
2009,06,30,10,43,16.90
2009,06,30,10,44,17.00
2009,06,30,10,45,17.10
2009,06,30,10,46,17.10
2009,06,30,10,47,17.00
2009,06,30,10,48,17.00
2009,06,30,10,49,16.90
2009,06,30,10,50,16.80
2009,06,30,10,51,16.80
2009,06,30,10,52,16.70
2009,06,30,10,53,16.60
2009,06,30,10,54,16.70
2009,06,30,10,55,16.70
2009,06,30,10,56,16.80
2009,06,30,10,57,16.80
2009,06,30,10,58,16.80
2009,06,30,10,59,16.80
2009,06,30,11,00,16.90
2009,06,30,11,01,17.00
2009,06,30,11,02,17.00
2009,06,30,11,03,16.90
2009,06,30,11,04,16.90
2009,06,30,11,05,16.90
2009,06,30,11,06,16.90
2009,06,30,11,07,17.00
2009,06,30,11,08,17.10
2009,06,30,11,09,17.10
2009,06,30,11,10,17.10
2009,06,30,11,11,17.00
2009,06,30,11,12,17.00
2009,06,30,11,13,17.20
2009,06,30,11,14,17.20
2009,06,30,11,15,17.30
2009,06,30,11,16,17.30
2009,06,30,11,17,17.20
2009,06,30,11,18,17.30
2009,06,30,11,19,17.30
2009,06,30,11,20,17.40
2009,06,30,11,21,17.50
2009,06,30,11,22,17.40
2009,06,30,11,23,17.20
2009,06,30,11,24,17.10
2009,06,30,11,25,17.10
2009,06,30,11,26,17.20
2009,06,30,11,27,17.30
2009,06,30,11,28,17.40
2009,06,30,11,29,17.40
2009,06,30,11,30,17.40
2009,06,30,11,31,17.40
2009,06,30,11,32,17.30
2009,06,30,11,33,17.20
2009,06,30,11,34,17.20
2009,06,30,11,35,17.20
2009,06,30,11,36,17.10
2009,06,30,11,37,17.10
2009,06,30,11,38,17.10
2009,06,30,11,39,17.30
2009,06,30,11,40,17.40
2009,06,30,11,41,17.40
2009,06,30,11,42,17.40
2009,06,30,11,43,17.30
2009,06,30,11,44,17.20
2009,06,30,11,45,17.20
2009,06,30,11,46,17.20
2009,06,30,11,47,17.20
2009,06,30,11,48,17.20
2009,06,30,11,49,17.20
2009,06,30,11,50,17.20
2009,06,30,11,51,17.20
2009,06,30,11,52,17.30
2009,06,30,11,53,17.40
2009,06,30,11,54,17.40
2009,06,30,11,55,17.40
2009,06,30,11,56,17.30
2009,06,30,11,57,17.30
2009,06,30,11,58,17.30
2009,06,30,11,59,17.30
2009,06,30,12,00,17.20
2009,06,30,12,01,17.20
2009,06,30,12,02,17.20
2009,06,30,12,03,17.30
2009,06,30,12,04,17.30
2009,06,30,12,05,17.30
2009,06,30,12,06,17.50
2009,06,30,12,07,17.50
2009,06,30,12,08,17.50
2009,06,30,12,09,17.60
2009,06,30,12,10,17.60
2009,06,30,12,11,17.70
2009,06,30,12,12,17.70
2009,06,30,12,13,17.70
2009,06,30,12,14,17.60
2009,06,30,12,15,17.60
2009,06,30,12,16,17.60
2009,06,30,12,17,17.70
2009,06,30,12,18,17.70
2009,06,30,12,19,17.80
2009,06,30,12,20,17.80
2009,06,30,12,21,17.80
2009,06,30,12,22,18.00
2009,06,30,12,23,18.10
2009,06,30,12,24,18.20
2009,06,30,12,25,18.20
2009,06,30,12,26,18.20
2009,06,30,12,27,18.30
2009,06,30,12,28,18.30
2009,06,30,12,29,18.30
2009,06,30,12,30,18.30
2009,06,30,12,31,18.30
2009,06,30,12,32,18.30
2009,06,30,12,33,18.30
2009,06,30,12,34,18.40
2009,06,30,12,35,18.40
2009,06,30,12,36,18.20
2009,06,30,12,37,18.20
2009,06,30,12,38,18.10
2009,06,30,12,39,18.10
2009,06,30,12,40,18.00
2009,06,30,12,41,18.00
2009,06,30,12,42,18.10
2009,06,30,12,43,18.20
2009,06,30,12,44,18.30
2009,06,30,12,45,18.30
2009,06,30,12,46,18.30
2009,06,30,12,47,18.30
2009,06,30,12,48,18.30
2009,06,30,12,49,18.40
2009,06,30,12,50,18.40
2009,06,30,12,51,18.30
2009,06,30,12,52,18.20
2009,06,30,12,53,18.10
2009,06,30,12,54,18.00
2009,06,30,12,55,17.90
2009,06,30,12,56,17.80
2009,06,30,12,57,17.80
2009,06,30,12,58,17.90
2009,06,30,12,59,18.00
2009,06,30,13,00,18.00
2009,06,30,13,01,17.90
2009,06,30,13,02,17.90
2009,06,30,13,03,17.90
2009,06,30,13,04,17.90
2009,06,30,13,05,17.80
2009,06,30,13,06,17.80
2009,06,30,13,07,17.90
2009,06,30,13,08,17.90
2009,06,30,13,09,18.00
2009,06,30,13,10,18.20
2009,06,30,13,11,18.20
2009,06,30,13,12,18.30
2009,06,30,13,13,18.40
2009,06,30,13,14,18.50
2009,06,30,13,15,18.60
2009,06,30,13,16,18.60
2009,06,30,13,17,18.60
2009,06,30,13,18,18.70
2009,06,30,13,19,18.60
2009,06,30,13,20,18.60
2009,06,30,13,21,18.70
2009,06,30,13,22,18.60
2009,06,30,13,23,18.60
2009,06,30,13,24,18.50
2009,06,30,13,25,18.40
2009,06,30,13,26,18.40
2009,06,30,13,27,18.40
2009,06,30,13,28,18.30
2009,06,30,13,29,18.20
2009,06,30,13,30,18.20
2009,06,30,13,31,18.20
2009,06,30,13,32,18.10
2009,06,30,13,33,18.10
2009,06,30,13,34,18.10
2009,06,30,13,35,18.20
2009,06,30,13,36,18.20
2009,06,30,13,37,18.40
2009,06,30,13,38,18.40
2009,06,30,13,39,18.40
2009,06,30,13,40,18.50
2009,06,30,13,41,18.70
2009,06,30,13,42,18.90
2009,06,30,13,43,19.10
2009,06,30,13,44,19.10
2009,06,30,13,45,18.90
2009,06,30,13,46,18.80
2009,06,30,13,47,18.80
2009,06,30,13,48,18.80
2009,06,30,13,49,18.80
2009,06,30,13,50,18.70
2009,06,30,13,51,18.80
2009,06,30,13,52,18.80
2009,06,30,13,53,18.70
2009,06,30,13,54,18.60
2009,06,30,13,55,18.50
2009,06,30,13,56,18.50
2009,06,30,13,57,18.40
2009,06,30,13,58,18.40
2009,06,30,13,59,18.30
2009,06,30,14,00,18.30
2009,06,30,14,01,18.30
2009,06,30,14,02,18.40
2009,06,30,14,03,18.50
2009,06,30,14,04,18.60
2009,06,30,14,05,18.70
2009,06,30,14,06,18.70
2009,06,30,14,07,18.80
2009,06,30,14,08,18.90
2009,06,30,14,09,19.10
2009,06,30,14,10,19.30
2009,06,30,14,11,19.30
2009,06,30,14,12,19.40
2009,06,30,14,13,19.40
2009,06,30,14,14,19.40
2009,06,30,14,15,19.40
2009,06,30,14,16,19.30
2009,06,30,14,17,19.20
2009,06,30,14,18,19.40
2009,06,30,14,19,19.40
2009,06,30,14,20,19.20
2009,06,30,14,21,19.10
2009,06,30,14,22,18.90
2009,06,30,14,23,18.90
2009,06,30,14,24,18.90
2009,06,30,14,25,19.00
2009,06,30,14,26,19.00
2009,06,30,14,27,19.00
2009,06,30,14,28,19.10
2009,06,30,14,29,19.10
2009,06,30,14,30,19.10
2009,06,30,14,31,19.10
2009,06,30,14,32,19.10
2009,06,30,14,33,19.10
2009,06,30,14,34,19.10
2009,06,30,14,35,19.00
2009,06,30,14,36,19.00
2009,06,30,14,37,18.90
2009,06,30,14,38,19.00
2009,06,30,14,39,19.10
2009,06,30,14,40,19.20
2009,06,30,14,41,19.40
2009,06,30,14,42,19.50
2009,06,30,14,43,19.50
2009,06,30,14,44,19.50
2009,06,30,14,45,19.40
2009,06,30,14,46,19.30
2009,06,30,14,47,19.30
2009,06,30,14,48,19.30
2009,06,30,14,49,19.40
2009,06,30,14,50,19.40
2009,06,30,14,51,19.40
2009,06,30,14,52,19.40
2009,06,30,14,53,19.50
2009,06,30,14,54,19.50
2009,06,30,14,55,19.60
2009,06,30,14,56,19.70
2009,06,30,14,57,19.80
2009,06,30,14,58,19.70
2009,06,30,14,59,19.60
2009,06,30,15,00,19.50
2009,06,30,15,01,19.40
2009,06,30,15,02,19.30
2009,06,30,15,03,19.30
2009,06,30,15,04,19.20
2009,06,30,15,05,19.20
2009,06,30,15,06,19.20
2009,06,30,15,07,19.20
2009,06,30,15,08,19.30
2009,06,30,15,09,19.40
2009,06,30,15,10,19.30
2009,06,30,15,11,19.40
2009,06,30,15,12,19.40
2009,06,30,15,13,19.60
2009,06,30,15,14,19.70
2009,06,30,15,15,19.80
2009,06,30,15,16,19.80
2009,06,30,15,17,19.90
2009,06,30,15,18,19.90
2009,06,30,15,19,20.00
2009,06,30,15,20,20.00
2009,06,30,15,21,20.00
2009,06,30,15,22,20.10
2009,06,30,15,23,20.20
2009,06,30,15,24,20.30
2009,06,30,15,25,20.40
2009,06,30,15,26,20.50
2009,06,30,15,27,20.50
2009,06,30,15,28,20.60
2009,06,30,15,29,20.70
2009,06,30,15,30,20.80
2009,06,30,15,31,20.60
2009,06,30,15,32,20.30
2009,06,30,15,33,20.20
2009,06,30,15,34,20.00
2009,06,30,15,35,19.90
2009,06,30,15,36,19.80
2009,06,30,15,37,19.80
2009,06,30,15,38,19.80
2009,06,30,15,39,19.70
2009,06,30,15,40,19.90
2009,06,30,15,41,20.10
2009,06,30,15,42,20.20
2009,06,30,15,43,20.20
2009,06,30,15,44,20.20
2009,06,30,15,45,20.20
2009,06,30,15,46,20.30
2009,06,30,15,47,20.30
2009,06,30,15,48,20.20
2009,06,30,15,49,20.30
2009,06,30,15,50,20.20
2009,06,30,15,51,20.20
2009,06,30,15,52,20.20
2009,06,30,15,53,20.20
2009,06,30,15,54,20.20
2009,06,30,15,55,20.30
2009,06,30,15,56,20.20
2009,06,30,15,57,20.10
2009,06,30,15,58,20.20
2009,06,30,15,59,20.30
2009,06,30,16,00,20.40
2009,06,30,16,01,20.50
2009,06,30,16,02,20.60
2009,06,30,16,03,20.70
2009,06,30,16,04,20.70
2009,06,30,16,05,20.70
2009,06,30,16,06,20.70
2009,06,30,16,07,20.60
2009,06,30,16,08,20.60
2009,06,30,16,09,20.50
2009,06,30,16,10,20.40
2009,06,30,16,11,20.40
2009,06,30,16,12,20.30
2009,06,30,16,13,20.30
2009,06,30,16,14,20.30
2009,06,30,16,15,20.10
2009,06,30,16,16,20.00
2009,06,30,16,17,19.90
2009,06,30,16,18,19.90
2009,06,30,16,19,19.90
2009,06,30,16,20,20.00
2009,06,30,16,21,20.20
2009,06,30,16,22,20.40
2009,06,30,16,23,20.50
2009,06,30,16,24,20.70
2009,06,30,16,25,20.80
2009,06,30,16,26,20.90
2009,06,30,16,27,20.90
2009,06,30,16,28,20.90
2009,06,30,16,29,20.90
2009,06,30,16,30,21.00
2009,06,30,16,31,21.00
2009,06,30,16,32,21.10
2009,06,30,16,33,21.30
2009,06,30,16,34,21.30
2009,06,30,16,35,21.30
2009,06,30,16,36,21.30
2009,06,30,16,37,21.30
2009,06,30,16,38,21.40
2009,06,30,16,39,21.40
2009,06,30,16,40,21.30
2009,06,30,16,41,21.20
2009,06,30,16,42,21.10
2009,06,30,16,43,21.00
2009,06,30,16,44,20.90
2009,06,30,16,45,20.80
2009,06,30,16,46,20.80
2009,06,30,16,47,20.80
2009,06,30,16,48,20.60
2009,06,30,16,49,20.60
2009,06,30,16,50,20.60
2009,06,30,16,51,20.70
2009,06,30,16,52,20.80
2009,06,30,16,53,20.90
2009,06,30,16,54,21.00
2009,06,30,16,55,21.00
2009,06,30,16,56,20.90
2009,06,30,16,57,21.00
2009,06,30,16,58,21.00
2009,06,30,16,59,21.10
2009,06,30,17,00,21.20
2009,06,30,17,01,21.20
2009,06,30,17,02,21.30
2009,06,30,17,03,21.30
2009,06,30,17,04,21.30
2009,06,30,17,05,20.90
2009,06,30,17,06,20.50
2009,06,30,17,07,20.20
2009,06,30,17,08,20.00
2009,06,30,17,09,19.80
2009,06,30,17,10,19.70
2009,06,30,17,11,19.70
2009,06,30,17,12,19.70
2009,06,30,17,13,19.90
2009,06,30,17,14,20.00
2009,06,30,17,15,20.00
2009,06,30,17,16,20.10
2009,06,30,17,17,20.10
2009,06,30,17,18,20.10
2009,06,30,17,19,20.00
2009,06,30,17,20,19.90
2009,06,30,17,21,19.70
2009,06,30,17,22,19.50
2009,06,30,17,23,19.50
2009,06,30,17,24,19.40
2009,06,30,17,25,19.40
2009,06,30,17,26,19.40